Home > Weather > Gänserndorf > Past weeks

Flag for Austria Past Weather in Gänserndorf, Lower Austria, Austria — Yesterday and Last 2 Weeks

Now
73 °F

Partly sunny.


Feels Like: 76 °F
Forecast: 63 / 87 °F
Wind: N/A

Location: Wien / Schwechat-Flughafen

Current Time: Jul 29, 2016 at 9:57:28 AM

Latest Report: Jul 29, 2016 at 9:00 AM


Visibility: 13 mi

Pressure: 29.98 "Hg

Humidity: 68%

Dew Point: 62 °F

Location of GänserndorfLocation

Past Weather in Gänserndorf — Graph

°F

Gänserndorf Temperature Yesterday

Maximum temperature yesterday: 79 °F (at 4:00 PM)
Minimum temperature yesterday: 66 °F (at 5:00 AM)
Average temperature yesterday: 72 °F

High & Low Weather Summary for the Past Weeks

 TemperatureHumidityPressure
High85 °F (Jul 26, 3:00 PM)96% (Jul 23, 5:00 AM)30.21 "Hg (Jul 23, 5:00 AM)
Low56 °F (Jul 15, 6:00 AM)44% (Jul 19, 4:00 PM)29.77 "Hg (Jul 14, 9:00 AM)
Average71 °F71%30.03 "Hg
* Reported Jul 14 8:00 AM — Jul 29 8:00 AM, Gänserndorf, Weather by CustomWeather, © 2016

Note: Actual official high and low records may vary slightly from our data, if they occured in-between our weather recording intervals... More about our weather records

Advertising

Gänserndorf Weather History for the Previous 24 Hours

Scroll right to see more
 ConditionsComfort  
Time TempWeatherWind HumidityBarometerVisibility
8:00 AM
Fri, Jul 29
70 °FPartly sunny.N/A76%29.98 "Hg19 mi
7:00 AM68 °FPartly sunny.N/A77%29.98 "Hg17 mi
6:00 AM64 °FScattered clouds.N/A87%29.98 "Hg16 mi
5:00 AM67 °FPassing clouds.3 mph81%29.98 "Hg19 mi
4:00 AM65 °FPassing clouds.N/A87%29.98 "Hg14 mi
3:00 AM69 °FPassing clouds.5 mph79%29.96 "Hg19 mi
2:00 AM69 °FPassing clouds.3 mph77%29.96 "Hg17 mi
1:00 AM70 °FPassing clouds.3 mph72%29.97 "Hg19 mi
12:00 AM72 °FPassing clouds.5 mph68%29.97 "Hg28 mi
11:00 PM
Thu, Jul 28
73 °FPassing clouds.6 mph65%29.97 "Hg28 mi
10:00 PM74 °FPassing clouds.5 mph62%29.97 "Hg28 mi
9:00 PM75 °FPassing clouds.5 mph61%29.97 "Hg25 mi
8:00 PM76 °FPartly sunny.6 mph55%29.96 "Hg28 mi
7:00 PM75 °FPartly sunny.N/A70%29.96 "Hg19 mi
6:00 PM79 °FPartly sunny.5 mph61%29.95 "Hg16 mi
5:00 PM79 °FPartly sunny.5 mph56%29.95 "Hg28 mi
4:00 PM79 °FPartly sunny.6 mph59%29.96 "Hg17 mi
3:00 PM78 °FPartly sunny.6 mph61%29.98 "Hg15 mi
2:00 PM76 °FPartly sunny.5 mph66%30.00 "Hg10 mi
1:00 PM72 °FOvercast.3 mph74%30.03 "Hg17 mi
12:00 PM72 °FOvercast.6 mph74%30.03 "Hg16 mi
11:00 AM73 °FOvercast.7 mph71%30.02 "Hg19 mi
10:00 AM72 °FOvercast.6 mph75%30.01 "Hg19 mi
9:00 AM69 °FRain showers. Overcast.6 mph83%30.02 "Hg19 mi
Weather by CustomWeather, © 2016

See weather overviewHow to use our weather pages